Location: Drocourt
(49.0571°N, 1.7669°E)
Time: 15:34:22
(UTC+00:00)

Cosmos 2074 Rocket - Pass Details

Date: 09 February 2023
Orbit: 967 x 986 km, 82.9° (Epoch: 26 March)

Event Time Altitude Azimuth Distance (km) Brightness Sun altitude
Rises 18:52:22 0° 354° (N) 3,703 7.1 -18.3°
Reaches altitude 10° 18:55:04 10° 2° (N) 2,753 6.3 -18.8°
Maximum altitude 19:01:00 41° 72° (ENE) 1,399 4.3 -19.7°
Enters shadow 19:03:00 32° 112° (ESE) 1,612 4.6 -20.1°
